Home > Weather > Hialeah > Past weeks

Flag for USA Weather for the Past 2 Weeks in Hialeah, Florida, USA

Now
78 °F

Clear.


Feels Like: 80 °F
Forecast: 71 / 88 °F
Wind: 9 mph from Southeast

Location: Opa Locka Airport

Current Time: Apr 28, 2016 at 10:38:39 PM

Latest Report: Apr 28, 2016 at 9:53 PM


Visibility: 10 mi

Pressure: 30.02 "Hg

Humidity: 74%

Dew Point: 69 °F

Location of HialeahLocation

Historic Weather in Hialeah — Graph

°F

Hialeah Temperature Yesterday

Maximum temperature yesterday: 85 °F (at 12:53 PM)
Minimum temperature yesterday: 69 °F (at 5:53 AM)
Average temperature yesterday: 77 °F

High & Low Weather Summary for the Past Weeks

 TemperatureHumidityPressure
High90 °F (Apr 15, 2:53 PM)90% (Apr 15, 10:53 PM)30.19 "Hg (Apr 15, 10:53 PM)
Low65 °F (Apr 18, 6:53 AM)37% (Apr 18, 1:53 PM)29.88 "Hg (Apr 15, 5:53 PM)
Average77 °F63%30.02 "Hg
* Reported Apr 13 8:53 PM — Apr 28 8:53 PM, Hialeah, Weather by CustomWeather, © 2016

Note: Actual official high and low records may vary slightly from our data, if they occured in-between our weather recording intervals... More about our weather records

Advertising

Hialeah Weather History for the Previous 24 Hours

Scroll right to see more
 ConditionsComfort  
Time TempWeatherWind HumidityBarometerVisibility
8:53 PM
Thu, Apr 28
79 °FClear.10 mph69%30.00 "Hg10 mi
7:53 PM79 °FSunny.9 mph69%29.99 "Hg9 mi
6:53 PM82 °FPassing clouds.9 mph63%29.97 "Hg10 mi
5:53 PM84 °FPartly sunny.12 mph59%29.97 "Hg10 mi
4:53 PM84 °FPartly sunny.12 mph57%29.96 "Hg10 mi
3:53 PM86 °FMore clouds than sun.13 mph53%29.96 "Hg10 mi
2:53 PM88 °FPartly sunny.13 mph50%29.98 "Hg10 mi
1:53 PM85 °FPartly sunny.13 mph55%29.99 "Hg10 mi
12:53 PM84 °FPartly sunny.7 mph55%30.00 "Hg10 mi
11:53 AM84 °FPartly sunny.No wind57%30.01 "Hg10 mi
10:53 AM85 °FMostly cloudy.5 mph55%30.01 "Hg10 mi
9:53 AM84 °FScattered clouds.9 mph53%30.00 "Hg10 mi
8:53 AM80 °FPassing clouds.9 mph69%30.00 "Hg10 mi
7:53 AM75 °FSunny.No wind85%29.99 "Hg10 mi
6:53 AM71 °FClear.No wind90%29.98 "Hg10 mi
5:53 AM70 °FClear.No wind90%29.96 "Hg10 mi
4:53 AM71 °FClear.No wind84%29.95 "Hg10 mi
3:53 AM74 °FClear.No wind79%29.94 "Hg10 mi
2:53 AM73 °FClear.No wind79%29.95 "Hg10 mi
1:53 AM74 °FClear.5 mph76%29.96 "Hg10 mi
12:53 AM74 °FClear.5 mph74%29.97 "Hg10 mi
11:53 PM
Wed, Apr 27
75 °FClear.5 mph74%29.97 "Hg10 mi
10:53 PM76 °FClear.9 mph72%29.96 "Hg10 mi
Weather by CustomWeather, © 2016

See weather overviewHow to use our weather pages